Wind_Speed
12 7 6 2 5 12 15 20 21 25 39 38 28 27 30 32 31 30 31 32 29 29 27 26 27 30 32 14 12 7 13 18 12 15 25 25 25 21 11 12 12 12 15 22 27 28 35 34 36
19 12 7 10 6 6 8 12 18 23 30 40 39 33 27 37 37 32 28 35 32 32 32 29 18 27 24 18 19 14 27 19 15 17 18 20 22 10 14 13 12 11 13 19 24 24 31 32 32
13 12 9 15 14 12 9 5 7 15 23 29 35 42 36 29 35 35 38 36 30 38 36 33 32 33 18 32 15 18 7 16 13 18 16 17 10 9 10 9 11 10 12 19 21 22 28 31 32
15 18 19 16 18 19 19 17 9 4 11 22 29 32 43 38 29 36 34 35 42 41 34 29 36 26 21 21 14 17 18 17 16 17 15 12 4 8 7 9 9 11 14 20 21 20 22 26 29
20 16 25 31 32 27 25 22 14 10 5 5 16 28 37 42 41 37 37 30 41 39 35 33 32 21 28 20 21 21 25 19 9 12 17 12 2 6 6 7 12 11 16 18 13 22 21 22 25
15 20 29 29 29 29 30 28 22 15 8 5 3 13 26 34 41 38 43 44 42 35 36 32 32 30 33 30 34 22 21 15 14 17 12 9 4 6 7 9 15 15 21 20 20 19 21 19 23
9 12 19 27 26 25 25 28 24 24 17 9 4 2 13 21 30 34 30 45 46 42 39 31 30 34 36 33 29 27 30 21 16 10 9 8 7 4 9 17 17 16 20 20 22 18 24 19 21
5 9 13 12 16 16 15 16 18 25 19 19 14 7 3 12 19 25 34 33 47 42 44 42 35 32 27 40 33 32 29 26 12 9 12 15 6 2 10 14 13 9 17 18 20 22 22 18 19
11 13 13 13 8 9 13 14 14 21 22 19 22 16 7 2 13 17 17 22 36 31 29 36 38 31 22 25 24 28 30 23 22 16 18 20 11 6 10 11 10 13 11 12 13 20 19 18 18
12 11 16 15 14 10 13 9 18 14 15 19 23 20 15 5 2 12 15 16 19 20 17 17 31 30 28 29 28 26 27 32 25 24 18 11 13 9 11 11 11 4 7 5 8 10 15 17 17
17 13 15 14 12 14 14 16 19 8 13 20 24 23 11 9 5 3 10 16 16 17 16 15 20 25 24 28 26 24 22 25 21 22 21 18 18 12 11 11 5 8 3 4 4 7 10 13 15
15 18 16 16 15 15 16 19 21 10 7 16 25 24 17 4 6 6 6 11 13 18 20 19 20 24 25 27 23 24 27 24 22 22 19 21 20 11 12 12 11 8 5 3 2 5 8 7 10
15 16 18 17 15 16 16 16 17 11 14 17 20 22 21 21 3 3 7 6 10 15 22 23 26 28 25 24 26 24 25 27 21 18 17 20 19 14 12 13 13 10 7 6 3 5 6 6 5
18 16 15 15 16 14 15 16 11 14 14 14 19 22 16 14 11 3 2 3 3 8 14 22 26 29 31 32 31 26 22 22 21 18 17 20 21 15 14 14 14 13 9 8 6 5 7 7 4
19 17 16 13 13 16 16 16 13 12 14 12 19 21 16 14 14 9 5 3 5 2 7 12 17 28 30 31 26 27 25 22 20 16 16 14 16 12 14 13 10 10 9 9 5 5 6 6 6
19 17 15 15 17 17 19 18 18 15 7 11 14 15 14 11 10 12 10 6 5 5 4 5 9 17 24 24 30 28 27 23 20 15 17 15 16 17 19 15 10 10 12 12 9 6 5 7 8
19 17 14 13 15 18 19 20 16 12 12 10 11 14 13 14 11 10 11 9 6 6 6 10 11 12 24 20 22 25 24 24 23 20 20 18 17 18 18 14 13 10 15 14 13 12 10 8 10
19 18 16 14 13 19 23 22 21 23 25 24 21 17 10 16 14 12 9 11 13 9 8 8 13 12 25 24 24 24 25 25 21 21 23 21 21 20 17 21 18 13 15 13 11 11 12 14 15
18 19 17 16 17 17 19 19 19 19 21 20 18 13 16 24 17 17 21 10 14 12 7 8 10 11 23 29 25 25 25 25 26 25 24 26 24 23 20 21 21 16 14 13 10 9 12 14 16
18 18 18 18 17 20 21 23 23 24 22 22 21 21 19 22 16 17 12 6 8 12 7 4 10 5 21 29 27 26 26 26 26 25 24 24 22 17 19 19 15 16 16 12 14 14 15 16 15
17 16 17 19 19 20 23 22 23 26 26 26 22 24 25 20 14 12 10 9 13 12 6 3 11 5 15 28 29 28 28 28 25 25 26 25 21 19 17 15 14 13 15 15 17 16 16 9 11
17 16 18 16 17 20 23 25 25 23 24 26 26 26 25 27 18 14 16 15 11 13 9 7 6 10 4 26 31 29 29 30 28 25 25 25 23 19 18 15 14 10 14 16 13 8 10 11 14
19 19 17 16 18 17 21 26 27 26 25 24 23 23 23 23 21 16 14 16 12 11 11 5 6 5 7 7 28 32 31 31 30 27 25 26 26 25 22 17 14 11 11 6 7 7 11 17 15
21 21 21 22 23 19 22 26 28 27 27 26 22 21 22 21 22 20 17 14 10 10 13 8 3 2 3 4 2 16 29 27 27 28 29 29 29 27 22 20 15 11 9 7 6 9 15 21 18
26 23 27 29 26 23 25 25 27 26 26 28 26 25 23 22 21 22 23 14 9 9 12 11 7 6 6 4 6 6 7 18 27 28 28 28 28 26 24 21 19 16 10 11 10 9 13 18 16
29 29 31 32 27 25 27 31 28 26 23 26 26 26 25 21 20 19 16 6 7 8 8 9 12 9 9 6 8 10 11 9 15 22 22 22 22 20 18 20 21 19 17 14 9 9 11 14 13
30 30 32 31 31 28 28 32 31 25 22 25 28 25 22 21 21 11 5 7 9 9 12 9 10 7 6 5 9 12 15 13 12 15 19 18 18 18 20 21 20 19 16 14 7 9 8 10 13
31 30 28 30 31 29 29 31 27 23 23 27 26 24 22 19 16 7 10 12 9 6 10 6 6 5 3 7 11 14 15 18 14 13 14 13 14 17 20 22 21 20 18 13 7 8 9 9 9
30 28 27 27 30 30 27 29 19 21 27 30 23 23 16 16 12 8 18 15 11 11 10 10 7 4 4 6 24 27 21 19 18 13 16 14 14 14 15 19 23 22 19 16 11 11 11 6 7
29 29 27 26 23 23 22 25 18 21 29 29 22 22 15 13 11 10 19 17 13 11 14 13 10 10 6 25 22 28 24 22 23 17 14 11 13 15 15 17 19 23 21 18 14 14 12 12 9
Wind_Direction
21 25 75 118 176 204 206 202 203 206 208 207 199 210 201 197 194 204 206 208 216 220 212 230 214 225 233 265 278 261 250 277 356 356 3 3 1 349 344 14 23 23 32 42 43 35 26 26 26
6 357 70 90 100 165 188 207 208 205 209 218 219 197 204 220 216 218 213 219 207 223 214 217 225 222 249 248 254 264 251 280 318 343 352 10 351 358 350 11 28 18 39 42 46 33 25 34 28
24 13 60 103 96 97 91 118 196 208 213 214 219 222 202 189 212 214 216 223 224 222 214 215 231 228 247 238 261 280 291 291 319 340 2 7 358 348 349 11 38 46 44 43 45 43 40 33 30
35 49 55 74 88 84 83 81 79 154 202 213 217 218 208 203 209 212 206 217 217 219 211 217 223 223 226 232 231 254 259 294 306 325 347 2 356 335 354 29 61 64 50 58 48 49 42 37 34
71 33 74 80 76 74 72 72 74 80 87 188 213 214 219 213 206 199 202 203 205 210 210 224 219 239 243 247 254 270 276 285 315 338 353 346 318 315 15 47 80 82 66 60 52 47 43 40 42
42 78 83 79 73 71 66 65 57 55 66 99 148 211 217 223 228 208 211 217 210 217 227 229 233 240 224 238 247 268 282 291 313 321 323 324 281 320 57 82 89 81 63 61 51 53 45 47 47
63 72 67 79 79 78 70 63 63 49 48 52 39 266 222 220 226 230 229 208 218 221 221 228 231 237 246 249 254 259 261 284 309 311 283 307 252 297 94 109 91 79 58 54 51 47 47 56 53
338 40 13 27 81 88 64 31 40 52 49 47 43 44 139 219 222 223 235 226 213 215 231 232 233 230 255 237 250 253 267 285 293 288 291 285 224 189 122 114 94 47 38 38 45 51 46 55 49
306 305 331 347 1 67 34 37 34 40 62 51 48 47 34 81 210 218 227 229 232 238 239 221 223 219 225 227 244 258 264 278 277 286 279 275 209 198 148 129 103 53 68 32 36 46 48 48 49
330 311 314 324 303 320 349 36 352 20 50 45 34 31 36 38 184 209 209 221 227 229 236 220 222 226 217 238 247 251 263 260 268 270 271 251 203 202 171 153 135 47 79 54 40 40 36 43 45
323 319 318 318 313 311 309 317 340 347 28 44 30 19 34 48 32 230 214 223 222 222 220 217 219 226 233 223 230 231 238 244 258 251 243 244 228 192 203 195 193 162 128 49 24 18 18 44 34
318 314 311 319 320 311 313 319 325 308 353 30 26 31 29 12 78 31 243 224 220 228 231 218 215 221 230 229 220 229 234 240 240 229 232 230 217 197 198 213 205 185 271 24 31 26 21 43 25
308 307 309 313 321 323 326 325 332 319 322 354 18 28 19 18 320 45 27 217 222 227 231 226 221 223 227 225 226 239 238 238 229 217 217 225 207 196 199 226 218 246 246 285 314 359 349 355 356
312 310 307 313 323 323 318 315 302 307 333 359 20 23 23 24 22 332 357 2 271 239 226 224 222 221 223 227 229 225 222 220 215 211 226 214 203 208 218 228 244 257 285 276 292 315 321 332 345
307 313 314 312 321 320 322 325 332 326 337 20 25 18 23 48 36 7 338 342 12 337 231 216 224 225 219 212 213 213 225 222 217 222 236 207 202 213 226 217 227 239 253 262 259 300 319 320 329
302 307 312 310 307 318 319 320 319 319 10 44 30 31 17 0 9 10 9 292 293 328 338 266 241 227 214 215 213 217 221 226 222 215 214 211 219 223 231 227 240 238 262 260 259 277 293 301 309
296 298 297 294 293 294 300 297 303 308 311 333 356 10 355 360 350 2 0 355 299 278 304 322 289 240 206 199 201 207 219 223 224 216 215 202 219 216 224 232 236 254 261 258 264 269 276 286 295
286 285 287 284 279 270 279 279 283 290 298 300 306 329 2 352 339 331 335 349 339 305 287 315 309 236 200 196 205 213 219 223 225 221 217 208 211 221 212 232 241 258 270 268 267 264 271 275 276
278 282 284 283 285 279 277 276 283 297 307 312 315 312 337 353 317 314 318 311 320 317 289 309 324 221 200 201 206 214 218 223 228 226 221 220 223 219 225 238 240 260 266 259 273 287 287 288 285
264 264 268 272 272 277 275 281 288 294 301 307 316 319 323 342 338 330 329 355 334 328 293 331 2 226 197 199 206 212 215 218 223 213 214 214 209 226 233 231 246 253 253 258 295 292 296 294 287
263 266 264 265 269 278 282 281 280 280 288 295 307 312 318 334 337 335 345 7 12 357 4 1 26 3 215 207 206 209 211 216 211 209 209 209 223 231 230 231 249 254 260 274 288 287 300 289 303
264 267 272 277 277 277 281 285 285 283 282 285 293 296 307 323 325 309 302 310 325 351 9 22 29 36 247 218 214 213 214 214 215 212 215 224 226 226 219 249 258 277 287 291 281 276 288 299 292
280 276 276 279 271 265 271 277 279 286 289 293 299 307 312 312 310 300 295 300 298 329 342 19 12 32 30 223 222 222 221 218 217 218 219 222 228 232 237 253 255 261 294 282 254 305 327 332 307
272 280 283 280 277 277 269 272 277 281 288 291 293 296 299 301 300 301 295 289 279 297 317 292 305 322 332 19 301 233 233 233 230 226 228 229 233 237 240 247 246 251 269 230 285 327 327 333 327
268 273 277 275 280 289 283 277 278 282 287 289 292 289 286 288 293 295 294 269 240 259 275 261 228 236 260 284 312 327 274 248 243 239 238 241 244 246 248 246 236 238 263 260 280 318 329 345 345
268 268 269 275 279 284 287 289 289 287 287 282 279 280 283 284 288 298 305 258 203 226 241 244 231 241 250 291 307 310 327 291 261 249 243 244 246 246 247 235 234 241 246 276 281 298 318 354 7
266 266 269 272 277 280 282 285 284 284 280 271 270 272 277 284 291 281 251 171 170 215 217 216 232 244 250 300 336 323 318 321 301 273 254 250 250 243 236 231 233 241 246 267 269 281 306 347 11
261 265 269 271 275 277 279 279 280 277 269 265 267 272 273 277 278 237 183 173 164 170 182 166 171 149 78 20 335 303 296 299 302 284 259 244 240 241 239 238 238 239 242 251 244 271 284 333 359
267 266 265 266 269 278 278 274 277 274 267 258 256 260 264 264 264 198 175 178 175 171 170 170 154 128 83 273 293 284 279 279 279 277 264 242 233 227 231 235 235 238 240 236 228 263 273 296 334
262 265 266 268 271 274 273 271 267 259 258 259 251 248 237 244 251 176 176 168 181 210 199 174 188 158 153 257 270 269 275 266 270 259 244 231 232 227 221 223 227 232 230 221 232 260 264 260 282
Height
10988 10985 10983 10982 10983 10984 10985 10986 10988 10990 10994 10997 11001 11001 11005 11010 11012 11015 11017 11017 11018 11019 11021 11023 11024 11026 11026 11027 11028 11029 11029 11028 11027 11027 11024 11021 11018 11017 11014 11012 11009 11007 11004 11001 10997 10993 10990 10985 10981
10987 10985 10982 10981 10982 10983 10984 10984 10984 10987 10990 10993 10996 10999 11000 11004 11006 11011 11015 11015 11016 11018 11019 11022 11022 11024 11025 11027 11028 11028 11027 11026 11025 11026 11025 11020 11020 11017 11015 11013 11010 11008 11006 11003 10999 10996 10994 10989 10986
10988 10986 10982 10980 10982 10983 10983 10983 10984 10985 10986 10988 10991 10994 10999 10999 11001 11006 11009 11011 11013 11016 11017 11019 11022 11022 11023 11025 11027 11027 11021 11025 11026 11025 11023 11022 11022 11019 11015 11012 11010 11010 11008 11006 11002 10999 10997 10994 10990
10988 10986 10985 10983 10984 10983 10982 10983 10985 10985 10985 10986 10987 10989 10992 10995 10998 11002 11004 11008 11011 11013 11015 11016 11018 11020 11023 11025 11026 11024 11023 11025 11026 11025 11022 11021 11022 11019 11016 11015 11012 11012 11010 11007 11004 11002 11000 10998 10996
10991 10986 10986 10985 10985 10985 10983 10983 10984 10984 10985 10985 10986 10986 10987 10990 10995 10997 11000 11003 11006 11010 11012 11013 11016 11019 11021 11022 11022 11024 11023 11023 11023 11023 11023 11022 11022 11020 11018 11016 11014 11013 11012 11010 11008 11005 11004 11002 10998
10994 10993 10988 10987 10986 10987 10987 10985 10985 10985 10984 10985 10985 10986 10986 10987 10989 10993 10997 11000 11003 11006 11010 11011 11014 11017 11018 11018 11020 11023 11022 11020 11021 11021 11021 11021 11022 11020 11018 11018 11015 11015 11014 11012 11010 11008 11006 11005 11002
10999 10998 10996 10991 10991 10991 10990 10989 10988 10986 10985 10984 10984 10983 10983 10986 10987 10988 10990 10994 10999 11003 11005 11007 11010 11013 11015 11015 11017 11019 11020 11019 11020 11019 11019 11020 11020 11021 11020 11020 11016 11016 11013 11013 11012 11010 11008 11007 11005
10998 11000 10999 10997 10995 10991 10990 10991 10991 10987 10987 10986 10984 10982 10982 10983 10984 10985 10987 10990 10993 10996 10999 11001 11008 11010 11010 11012 11013 11014 11016 11018 11018 11019 11018 11020 11021 11021 11022 11021 11019 11018 11017 11014 11013 11012 11011 11010 11009
10998 10996 10998 10998 10996 10993 10992 10991 10991 10990 10987 10988 10985 10983 10982 10982 10983 10984 10985 10987 10990 10991 10993 10997 11003 11004 11006 11007 11008 11010 11013 11014 11016 11017 11018 11018 11019 11020 11022 11022 11021 11020 11019 11017 11015 11015 11015 11014 11012
10997 10996 10995 10995 10995 10993 10991 10991 10993 10992 10990 10988 10985 10985 10984 10983 10983 10982 10984 10985 10985 10987 10990 10993 10996 10998 11001 11004 11005 11006 11010 11011 11012 11014 11015 11017 11019 11019 11020 11020 11020 11021 11021 11019 11017 11017 11016 11016 11015
10993 10995 10993 10994 10993 10992 10992 10991 10990 10991 10990 10987 10985 10984 10984 10983 10983 10982 10982 10983 10984 10984 10986 10989 10991 10993 10996 10999 11001 11004 11007 11008 11008 11010 11012 11015 11017 11018 11018 11018 11019 11019 11019 11018 11017 11017 11018 11018 11018
10992 10990 10992 10991 10990 10990 10991 10990 10990 10990 10990 10988 10984 10983 10983 10982 10981 10981 10980 10981 10981 10982 10983 10985 10987 10990 10993 10996 10998 11000 11002 11003 11005 11007 11009 11011 11015 11016 11018 11016 11017 11017 11019 11017 11017 11018 11019 11019 11020
10990 10989 10988 10988 10988 10988 10988 10989 10988 10987 10988 10989 10986 10983 10982 10981 10980 10979 10979 10979 10979 10979 10980 10981 10982 10984 10988 10992 10994 10997 10998 10999 11002 11004 11005 11008 11012 11013 11016 11017 11018 11018 11018 11019 11017 11016 11017 11018 11019
10986 10986 10986 10984 10984 10984 10986 10987 10989 10987 10987 10985 10984 10983 10982 10981 10980 10979 10979 10978 10977 10976 10975 10976 10977 10979 10983 10986 10990 10993 10994 10996 10998 11001 11003 11006 11009 11010 11014 11015 11016 11018 11017 11018 11017 11017 11016 11016 11018
10982 10983 10982 10982 10981 10981 10983 10984 10986 10987 10987 10984 10981 10981 10982 10981 10979 10977 10976 10976 10976 10975 10973 10973 10973 10974 10977 10980 10984 10988 10991 10993 10996 10998 11000 11002 11006 11007 11009 11012 11013 11014 11014 11014 11014 11015 11015 11015 11016
10981 10981 10980 10978 10978 10978 10979 10981 10982 10983 10982 10982 10983 10982 10982 10983 10981 10979 10976 10975 10974 10973 10972 10971 10970 10970 10972 10975 10979 10984 10987 10989 10993 10995 10997 10998 11001 11004 11008 11009 11009 11010 11011 11011 11012 11013 11013 11014 11015
10977 10978 10978 10978 10978 10978 10978 10978 10979 10980 10980 10981 10981 10982 10981 10979 10978 10977 10975 10973 10972 10971 10969 10967 10967 10966 10968 10973 10976 10979 10983 10986 10989 10992 10994 10996 10998 11002 11004 11005 11006 11006 11008 11009 11009 11010 11011 11011 11011
10974 10975 10975 10975 10976 10977 10976 10976 10976 10976 10978 10979 10979 10979 10979 10978 10977 10976 10975 10972 10969 10967 10966 10965 10963 10963 10966 10969 10973 10976 10980 10983 10986 10989 10991 10993 10996 10998 11001 11003 11003 11003 11004 11005 11006 11007 11008 11009 11008
10970 10971 10971 10972 10973 10974 10973 10972 10972 10974 10974 10973 10972 10975 10976 10974 10973 10973 10973 10972 10970 10967 10964 10963 10960 10960 10964 10967 10972 10974 10977 10981 10984 10986 10988 10991 10994 10996 10998 11000 11002 11001 11001 11002 11002 11003 11004 11004 11004
10970 10970 10969 10969 10970 10969 10969 10969 10969 10969 10970 10969 10969 10968 10970 10971 10969 10968 10967 10967 10966 10965 10963 10960 10959 10959 10962 10966 10969 10972 10976 10978 10980 10984 10986 10989 10992 10993 10995 10997 10998 10998 10998 10998 10998 11000 11001 10999 10999
10966 10966 10966 10966 10966 10965 10963 10965 10967 10966 10965 10965 10967 10966 10964 10966 10967 10965 10964 10965 10964 10962 10960 10960 10959 10959 10962 10964 10967 10970 10973 10975 10977 10981 10983 10985 10988 10991 10993 10994 10994 10995 10995 10995 10995 10996 10996 10995 10994
10961 10961 10961 10962 10962 10961 10959 10958 10960 10961 10962 10963 10964 10964 10963 10961 10961 10962 10962 10961 10961 10960 10959 10958 10959 10959 10961 10963 10966 10968 10970 10972 10976 10977 10979 10983 10985 10986 10989 10991 10992 10993 10992 10991 10992 10992 10991 10991 10990
10954 10954 10956 10957 10956 10957 10956 10952 10953 10954 10956 10957 10957 10957 10958 10958 10958 10959 10958 10958 10957 10957 10958 10958 10958 10959 10960 10960 10963 10966 10968 10969 10972 10975 10977 10980 10982 10984 10986 10987 10990 10991 10990 10989 10990 10989 10988 10988 10985
10948 10949 10949 10949 10949 10953 10951 10948 10948 10949 10948 10950 10952 10951 10952 10952 10952 10953 10954 10954 10953 10954 10954 10955 10955 10956 10958 10959 10960 10962 10964 10967 10969 10971 10974 10976 10978 10981 10983 10984 10987 10988 10988 10988 10988 10987 10985 10983 10979
10942 10944 10943 10943 10944 10946 10944 10944 10944 10944 10945 10942 10944 10945 10946 10946 10947 10947 10947 10948 10949 10950 10950 10950 10952 10952 10954 10956 10958 10959 10960 10962 10965 10967 10969 10972 10974 10977 10979 10981 10983 10985 10986 10986 10986 10985 10984 10980 10975
10936 10937 10937 10936 10940 10941 10937 10934 10936 10938 10940 10938 10937 10936 10938 10942 10942 10942 10942 10944 10945 10946 10946 10947 10949 10950 10953 10955 10957 10958 10958 10959 10960 10963 10965 10967 10969 10972 10974 10976 10978 10982 10983 10984 10983 10982 10982 10979 10975
10928 10930 10930 10931 10932 10934 10934 10929 10929 10932 10934 10930 10928 10931 10933 10935 10937 10939 10938 10940 10943 10944 10942 10943 10946 10950 10951 10953 10956 10957 10957 10956 10957 10960 10962 10963 10965 10966 10968 10970 10973 10977 10980 10981 10981 10980 10981 10978 10975
10918 10921 10924 10923 10924 10926 10927 10924 10924 10924 10923 10921 10923 10924 10927 10930 10933 10935 10936 10938 10940 10939 10940 10942 10943 10947 10949 10951 10952 10953 10953 10955 10955 10957 10959 10960 10960 10961 10963 10965 10969 10972 10975 10977 10978 10979 10979 10978 10976
10910 10913 10916 10917 10917 10917 10919 10916 10918 10915 10911 10912 10918 10918 10923 10925 10928 10930 10930 10934 10936 10936 10939 10939 10942 10944 10947 10946 10946 10946 10949 10951 10953 10954 10957 10957 10957 10956 10958 10960 10963 10967 10970 10973 10974 10975 10976 10976 10975
10903 10905 10907 10909 10911 10911 10911 10907 10909 10907 10902 10905 10911 10913 10919 10922 10923 10926 10928 10932 10932 10932 10935 10939 10942 10942 10945 10950 10943 10942 10943 10946 10949 10951 10954 10954 10953 10953 10953 10955 10958 10961 10963 10966 10968 10971 10972 10972 10973